Retour au catalogue

FENGYUN 1C DEB

ActifSSO
NORAD 29958·DEBRIS·🇨🇳 China

Lancé May 10, 1999 depuis Taiyuan Satellite Launch Center

Loading…

Prochains Passages (prochaines 24 heures)

TLE

FraisSource: Space-Track

Époque: Sep 14, 2026, 06:23 UTC

1 29958U 99025KG  26257.26663601  .00000271  00000-0  16077-3 0  9994
2 29958  98.6608 268.5049 0053396 264.3445  95.1638 14.14699377 13401

Suivez FENGYUN 1C DEB en temps réel avec AllMySat

Download on the App Store